WetterOnline ( http://www.wetteronline.de )

Wetter aktuell Bad Salzuflen

Aktuelles Wetter: Bad Salzuflen (139m)

6-stündlich | Neueste Meldungen
Ortszeit Temperatur Wetter
So, 18.02. 1:00 -1.9° C wolkenlos
Sa, 17.02. 19:00 0.9° C bedeckt
Sa, 17.02. 13:00 2.6° C bedeckt
Sa, 17.02. 7:00 -1.5° C bedeckt
Sa, 17.02. 1:00 -0.1° C wolkig
Fr, 16.02. 19:00 3.2° C bewölkt
Fr, 16.02. 13:00 4.6° C wolkig
Fr, 16.02. 7:00 1.4° C bewölkt
Ortszeit Temperatur Wetter
So, 18.02. 3:30 -2.5° C fast wolkenlos
So, 18.02. 3:20 -2.5° C fast wolkenlos
So, 18.02. 3:10 -2.7° C fast wolkenlos
So, 18.02. 3:00 -2.4° C wolkenlos
So, 18.02. 2:50 -2.4° C wolkenlos
So, 18.02. 2:40 -2.3° C wolkenlos
So, 18.02. 2:30 -2.7° C wolkenlos
So, 18.02. 2:00 -2.8° C fast wolkenlos
So, 18.02. 1:30 -2.0° C fast wolkenlos
So, 18.02. 1:00 -1.9° C wolkenlos
So, 18.02. 0:30 -2.0° C wolkenlos
Ortszeit Relative Feuchte Sichtweite
So, 18.02. 1:00 96% 4.6 km
Sa, 17.02. 19:00 84% 6 km
Sa, 17.02. 13:00 77% 6 km
Sa, 17.02. 7:00 89% 4.6 km
Sa, 17.02. 1:00 84% 14 km
Fr, 16.02. 19:00 71% 26 km
Fr, 16.02. 13:00 73% 12 km
Fr, 16.02. 7:00 95% 2.6 km
Ortszeit Relative Feuchte Sichtweite
So, 18.02. 3:30 94% 4.4 km
So, 18.02. 3:20 94% -
So, 18.02. 3:10 93% -
So, 18.02. 3:00 93% 2.7 km
So, 18.02. 2:50 93% -
So, 18.02. 2:40 94% -
So, 18.02. 2:30 95% 2.6 km
So, 18.02. 2:00 92% 2.7 km
So, 18.02. 1:30 93% 3.4 km
So, 18.02. 1:00 96% 4.6 km
So, 18.02. 0:30 94% 2.9 km
Ortszeit Niederschlagsmenge Niederschlagsart
So, 18.02. 1:00 0.0 l/m2 in 6 Std. -
Sa, 17.02. 19:00 0.0 l/m2 in 12 Std. -
Sa, 17.02. 13:00 0.0 l/m2 in 6 Std. -
Sa, 17.02. 7:00 0.0 l/m2 in 12 Std. -
Sa, 17.02. 1:00 0.0 l/m2 in 6 Std. -
Fr, 16.02. 19:00 0.0 l/m2 in 12 Std. -
Fr, 16.02. 13:00 0.0 l/m2 in 6 Std. -
Fr, 16.02. 7:00 0.1 l/m2 in 12 Std. -
Ortszeit Niederschlagsmenge Niederschlagsart
So, 18.02. 3:30 0.0 l/m2 in 1 Std. -
So, 18.02. 3:20 keine Meldung -
So, 18.02. 3:10 keine Meldung -
So, 18.02. 3:00 0.0 l/m2 in 1 Std. -
So, 18.02. 2:50 keine Meldung -
So, 18.02. 2:40 keine Meldung -
So, 18.02. 2:30 0.0 l/m2 in 1 Std. -
So, 18.02. 2:00 0.0 l/m2 in 1 Std. -
So, 18.02. 1:30 0.0 l/m2 in 1 Std. -
So, 18.02. 1:00 0.0 l/m2 in 1 Std. -
So, 18.02. 0:30 0.0 l/m2 in 1 Std. -
Ortszeit Stärke Spitze Richtung
km/h Bft. km/h Grad Sektor
So, 18.02. 1:00 2 1 9 20° N
Sa, 17.02. 19:00 6 1 11 30° NO
Sa, 17.02. 13:00 4 1 11 100° O
Sa, 17.02. 7:00 7 2 11 20° N
Sa, 17.02. 1:00 4 1 11 340° N
Fr, 16.02. 19:00 4 1 29 170° S
Fr, 16.02. 13:00 14 3 32 240° SW
Fr, 16.02. 7:00 7 2 18 190° S
Ortszeit Stärke Spitze Richtung
km/h Bft. km/h Grad Sektor
So, 18.02. 3:30 4 1 4 350° N
So, 18.02. 3:20 4 1 - 350° N
So, 18.02. 3:10 4 1 - 350° N
So, 18.02. 3:00 4 1 4 360° N
So, 18.02. 2:50 4 1 - 360° N
So, 18.02. 2:40 4 1 - 350° N
So, 18.02. 2:30 2 1 6 340° N
So, 18.02. 2:00 4 1 4 10° N
So, 18.02. 1:30 2 1 4 40° NO
So, 18.02. 1:00 2 1 4 20° N
So, 18.02. 0:30 4 1 4 360° N
Ortszeit Untergrenze Bedeckung Gattung
total tief tief mittel hoch
So, 18.02. 1:00 - 0/8 0/8 - - -
Sa, 17.02. 19:00 5700 m 8/8 8/8 - - -
Sa, 17.02. 13:00 4500 m 8/8 8/8 - - -
Sa, 17.02. 7:00 5400 m 8/8 8/8 - - -
Sa, 17.02. 1:00 7500 m 8/8 0/8 - - -
Fr, 16.02. 19:00 1170 m 8/8 5/8 - - -
Fr, 16.02. 13:00 450 m 6/8 6/8 - - -
Fr, 16.02. 7:00 180 m 8/8 7/8 - - -
Ortszeit Bedeckungsgrad in Achtel und Wolkenuntergrenze
So, 18.02. 3:30 1(2700m)
So, 18.02. 3:20 1(2700m)
So, 18.02. 3:10 1(2700m)
So, 18.02. 3:00 9 9 9
So, 18.02. 2:50 keine Wolken
So, 18.02. 2:40 keine Wolken
So, 18.02. 2:30 keine Wolken
So, 18.02. 2:00 1(2700m)
So, 18.02. 1:30 1(2700m)
So, 18.02. 1:00 keine Wolken
So, 18.02. 0:30 keine Wolken
Ortszeit Luftdruck NN (hPa) Tendenz (hPa in 3 Std.)
So, 18.02. 1:00 1028 + 1,1
Sa, 17.02. 19:00 1026 + 1,2
Sa, 17.02. 13:00 1024 0,0
Sa, 17.02. 7:00 1025 - 1,0
Sa, 17.02. 1:00 1027 + 0,1
Fr, 16.02. 19:00 1027 + 1,0
Fr, 16.02. 13:00 1026 + 1,5
Fr, 16.02. 7:00 1022 + 1,7
Ortszeit Luftdruck NN (hPa) Tendenz (hPa in 3 Std.)
So, 18.02. 3:30 1028 + 0,3
So, 18.02. 3:20 1028 keine Meldung
So, 18.02. 3:10 1028 keine Meldung
So, 18.02. 3:00 1028 + 0,4
So, 18.02. 2:50 1028 keine Meldung
So, 18.02. 2:40 1028 keine Meldung
So, 18.02. 2:30 1028 + 0,7
So, 18.02. 2:00 1028 + 1,0
So, 18.02. 1:30 1028 + 1,0
So, 18.02. 1:00 1028 + 1,1
So, 18.02. 0:30 1028 + 1,3
Ortszeit Schneehöhe (cm)
So, 18.02. 1:00 0
Sa, 17.02. 19:00 0
Sa, 17.02. 13:00 0
Sa, 17.02. 7:00 0
Sa, 17.02. 1:00 0
Fr, 16.02. 19:00 0
Fr, 16.02. 13:00 0
Fr, 16.02. 7:00 -
Ortszeit Schneehöhe (cm)
So, 18.02. 3:30 0
So, 18.02. 3:20 0
So, 18.02. 3:10 0
So, 18.02. 3:00 0
So, 18.02. 2:50 0
So, 18.02. 2:40 0
So, 18.02. 2:30 0
So, 18.02. 2:00 0
So, 18.02. 1:30 0
So, 18.02. 1:00 0
So, 18.02. 0:30 0
Link zu dieser Seite / Seite empfehlen

Das Wetter in ...